Regional Weather Roundup
Issued by NWS Northern Indiana

Home | Current Version | Previous Version | Graphics & Text | Print | Product List | Glossary On
Versions: 1 2 3 4 5 6 7 8 9 10 11 12 13 14 15 16 17 18 19 20 21 22 23 24 25 26 27 28 29 30 31 32 33 34 35 36 37 38 39 40 41 42 43 44 45 46 47 48 49 50
000
ASUS43 KIWX 011400
RWRIWX

KIWX WEATHER ROUNDUP
NATIONAL WEATHER SERVICE NORTHERN INDIANA
900 AM EST SUN MAR 01 2015

NOTE: "FAIR" INDICATES FEW OR NO CLOUDS BELOW 12,000 FEET WITH NO
SIGNIFICANT WEATHER AND/OR OBSTRUCTIONS TO VISIBILITY.

* THESE STATIONS ARE NOT UNDER NWS QUALITY CONTROL. THEY ALSO MAY NOT
  REPORT WEATHER SUCH AS PRECIPITATION OR FOG.

INZ001>027-011500-
NORTHERN INDIANA

CITY           SKY/WX    TMP DP  RH WIND       PRES   REMARKS
GARY*          CLOUDY    21  14  73 SE3       30.39R
VALPARAISO     LGT SNOW  18  14  86 E5        30.38R FOG     WCI  11
SOUTH BEND     CLOUDY    18  13  80 CALM      30.39R HAZE
ELKHART*       LGT SNOW  18  10  73 CALM      30.39S
GOSHEN         LGT SNOW  18  14  84 E3        30.37S VSB 1
MONTICELLO*    LGT SNOW  20  18  93 CALM      30.37S VSB 1
ANGOLA*        CLOUDY    16   7  67 CALM      30.36S
FORT WAYNE     LGT SNOW  18  15  88 E3        30.38F VSB 1
PERU/GRISSOM   SNOW      19  18  93 NE3       30.36R VSB 1/2

$$
INZ028>050-011500-
CENTRAL INDIANA

CITY           SKY/WX    TMP DP  RH WIND       PRES   REMARKS
LAFAYETTE      SNOW      21  19  92 CALM      30.38R VSB 1/2
KOKOMO*          N/A     21  18  86 CALM      30.37S VSB 3/4
MUNCIE*        SNOW      26  24  92 S5        30.36S VSB 1/2 WCI  20
INDIANAPOLIS   SNOW      25  22  88 CALM      30.36R VSB 1/2

$$
MIZ043>046-050>051-056>058-064>065-071>073-077>080-011500-
SOUTHWEST LOWER MICHIGAN

CITY           SKY/WX    TMP DP  RH WIND       PRES   REMARKS
BATTLE CREEK   PTSUNNY   11   8  88 S5        30.37F FOG     WCI   3
BENTON HARBOR  CLOUDY    15  13  91 SE5       30.38S FOG     WCI   8
COLDWATER*     CLOUDY    16  12  84 CALM      30.36S
HILLSDALE*     CLOUDY    16  13  88 CALM      30.35S
HOLLAND        CLOUDY    14  11  87 S5        30.37F FOG     WCI   6
GRAND RAPIDS   LGT SNOW  12   9  87 S5        30.37S FOG     WCI   4
KALAMAZOO      PTSUNNY   14  11  87 CALM      30.37F FOG
STURGIS*       CLOUDY    16  12  86 CALM      30.36F
THREE RIVERS*  LGT SNOW  15  12  86 CALM      30.38F

$$
OHZ001>008-015>018-024>025-011500-
NORTHWEST OHIO

CITY           SKY/WX    TMP DP  RH WIND       PRES   REMARKS
DEFIANCE       LGT SNOW  19  14  81 CALM      30.40R
FINDLAY        LGT SNOW  22  18  85 CALM      30.37S VSB 1
TOLEDO EXPRESS LGT SNOW  18  14  84 CALM      30.39S FOG
TOLEDO METCALF LGT SNOW  19  15  84 CALM      30.40S FOG
LIMA           SNOW      24  21  88 CALM      30.36S VSB 1/2

$$
AND FOR LAKE MICHIGAN COASTAL AND OPEN LAKE BUOY OBSERVATIONS

STATION/POSITION TEMP    WIND        PRES    VSBY  WAVE
                 AIR SEA DIR/SP/G                  HT/PER
                 (F)     (DEG/KT/KT) (MB)    (MI)  (FT/S)
CALUMET HARBOR    19     180/  3/  3 1027.7R
MICHIGAN CITY     17     100/  5/  7   N/A
SAINT JOSEPH      16     100/  3/  6 1029.1S

$$
&&


USA.gov is the U.S. government's official web portal to all federal, state and local government web resources and services.